Location: Unspecified
(0.0000°N, 0.0000°E)
Time: 19:00:38
(UTC+00:00)

Altair - Pass Details

Date: 27 November 2019
Orbit: 1502 x 1682 km, 47.2° (Epoch: 08 December)

Event Time Altitude Azimuth Distance (km) Brightness Sun altitude
Rises 07:04:33 0° 356° (N) 4,665 9.8 17.9°
Reaches altitude 10° 07:10:48 10° 27° (NNE) 3,726 9.7 19.4°
Maximum altitude 07:13:36 12° 45° (NE) 3,628 9.9 20.0°
Drops below altitude 10° 07:16:25 10° 63° (ENE) 3,772 10.2 20.7°
Sets 07:22:48 0° 93° (E) 4,810 11.3 22.1°
